Weather History for Barranquilla, Colombia

Change the Weather History Date:

Saturday, October 13, 2012

  Actual Average Record
Temperature  
Mean Temperature 82 °F -  
Max Temperature 90 °F 90 °F 95 °F (2003)
Min Temperature 75 °F 75 °F 62 °F (2005)
Cooling Degree Days 18    
Growing Degree Days 32 (Base 50)    
Moisture  
Dew Point 76 °F    
Average Humidity 82    
Maximum Humidity 100    
Minimum Humidity 54    
Precipitation  
Precipitation 0.00 in 0.18 in - ()
Sea Level Pressure  
Sea Level Pressure 29.84 in    
Wind  
Wind Speed 5 mph ()    
Max Wind Speed 12 mph    
Max Gust Speed -    
Visibility 5.8 miles    
Events Fog , Rain    
Averages and records for this station are not official NWS values.
T = Trace of Precipitation, MM = Missing Value Source: Averaged Metar Reports

Daily Weather History Graph

Daily Weather History Graph

Search for Another Location

Airport:

Trip Planner

Search our weather history database for the weather conditions in past years. The results will help you decide how hot, cold, wet, or windy it might be!

Date:

Astronomy

Oct. 13, 2012 Rise Set
Actual Time 5:48 AM COT 5:42 PM COT
Civil Twilight 5:26 AM COT 6:03 PM COT
Nautical Twilight 5:02 AM COT 6:28 PM COT
Astronomical Twilight 4:37 AM COT 6:52 PM COT
Moon 3:52 AM COT (10/13) 4:13 PM COT (10/13)
Length of Visible Light 12h 36m
Length of Day
11h 54m
Waning Crescent, 5% of the Moon is Illuminated
Oct 13
Waning Crescent
Oct 15
New
Oct 21
First Quarter
Oct 29
Full
Nov 6
Last Quarter

Hourly Weather History & Observations

Time (COT) Temp. Heat Index Dew Point Humidity Pressure Visibility Wind Dir Wind Speed Gust Speed Precip Events Conditions
12:00 AM 82.4 °F 92.4 °F 78.8 °F 89% 29.85 in 6.2 mi Variable 2.3 mph - N/A   Scattered Clouds
1:00 AM 82.4 °F 92.4 °F 78.8 °F 89% 29.83 in 6.2 mi Calm Calm - N/A   Scattered Clouds
3:00 AM 77.0 °F - 77.0 °F 100% 29.83 in 5.0 mi SW 8.1 mph - N/A Fog Fog
4:00 AM 77.0 °F - 77.0 °F 100% 29.82 in 6.2 mi SSE 4.6 mph - N/A   Scattered Clouds
5:00 AM 77.0 °F - 77.0 °F 100% 29.82 in 4.3 mi Calm Calm - N/A Fog Fog
6:00 AM 77.0 °F - 77.0 °F 100% 29.84 in 3.1 mi Variable 2.3 mph - N/A   Scattered Clouds
7:00 AM 78.8 °F - 77.0 °F 94% 29.85 in 5.0 mi WSW 4.6 mph - N/A Fog Fog
8:00 AM 80.6 °F 88.1 °F 78.8 °F 94% 29.88 in 5.0 mi SSW 5.8 mph - N/A Fog Fog
9:00 AM 82.4 °F 90.9 °F 77.0 °F 84% 29.89 in 5.6 mi SSW 11.5 mph - N/A   Mostly Cloudy
9:33 AM 86.0 °F 96.9 °F 77.0 °F 74% 29.89 in 6.2 mi SSW 8.1 mph - N/A   Mostly Cloudy
10:00 AM 87 °F - 78 °F 68% 29.89 in 6 mi SSW 8.9 mph - -   Haze
10:00 AM 86.0 °F 99.3 °F 78.8 °F 79% 29.88 in 6.2 mi SSW 8.1 mph - N/A   Mostly Cloudy
11:00 AM 87.8 °F 99.7 °F 77.0 °F 70% 29.85 in 6.2 mi South 6.9 mph - N/A   Scattered Clouds
12:00 PM 91.4 °F 105.1 °F 77.0 °F 63% 29.82 in 6.2 mi South 11.5 mph - N/A   Scattered Clouds
1:00 PM 89 °F - 74 °F 54% 29.81 in 6 mi South 6.7 mph - -   Haze
1:00 PM 87.8 °F 97.6 °F 75.2 °F 66% 29.80 in 6.2 mi South 5.8 mph - N/A   Scattered Clouds
2:00 PM 87.8 °F 95.6 °F 73.4 °F 62% 29.78 in 6.2 mi SSW 5.8 mph - N/A   Partly Cloudy
3:00 PM 87.8 °F 95.6 °F 73.4 °F 62% 29.77 in 6.2 mi SSW 4.6 mph - N/A   Partly Cloudy
4:00 PM 85 °F - 75 °F 66% 29.78 in 6 mi West 8.9 mph - -   Haze
4:00 PM 84.2 °F 92.3 °F 75.2 °F 74% 29.77 in 6.2 mi West 9.2 mph - N/A   Partly Cloudy
5:00 PM 84.2 °F 92.3 °F 75.2 °F 74% 29.79 in 6.2 mi West 9.2 mph - N/A   Scattered Clouds
6:00 PM 82.4 °F 89.5 °F 75.2 °F 79% 29.80 in 6.2 mi West 4.6 mph - N/A   Partly Cloudy
7:00 PM 82 °F - 78 °F 83% 29.81 in 6 mi WSW 6.7 mph - -   Haze
7:00 PM 82.4 °F 90.9 °F 77.0 °F 84% 29.80 in 6.2 mi WSW 5.8 mph - N/A   Partly Cloudy
8:00 PM 80.6 °F 87.1 °F 77.0 °F 89% 29.83 in 6.2 mi SW 4.6 mph - N/A   Mostly Cloudy
9:00 PM 78.8 °F - 77.0 °F 94% 29.86 in 6.2 mi NNW 10.4 mph - N/A   Mostly Cloudy
9:09 PM 78.8 °F - 77.0 °F 94% 29.87 in 5.0 mi NNW 9.2 mph - N/A   Light Drizzle
10:00 PM 76 °F - 74 °F 94% 29.88 in 6 mi North 4.5 mph - - Rain Drizzle
10:00 PM 75.2 °F - 75.2 °F 100% 29.88 in 5.6 mi North 4.6 mph - N/A   Light Drizzle
11:00 PM 77.0 °F - 75.2 °F 94% 29.88 in 5.6 mi Calm Calm - N/A   Mostly Cloudy